Wind_Speed
41 40 39 39 37 36 35 33 34 31 30 30 29 30 41 52 64 50 52 43 48 40 26 39 37 43 43 34 38 38 34 36 34 30 28 20 17 21 22 17 18 18 17 21 20 11 13 16 18 15 13 14 16 16
44 43 41 40 39 37 35 34 33 32 31 30 29 32 41 50 65 47 53 50 42 42 35 38 46 41 47 37 34 38 37 27 33 24 28 18 18 18 23 18 18 17 20 10 15 8 10 9 12 16 17 17 18 16
46 46 43 41 39 38 36 35 33 33 30 29 29 35 43 50 64 44 57 56 40 35 36 40 41 36 31 34 42 38 41 38 26 23 26 23 19 26 25 26 20 22 20 18 17 20 19 19 20 21 23 22 20 18
47 49 48 41 39 38 37 36 34 34 32 28 31 36 42 53 61 53 55 51 48 30 23 32 35 40 40 38 34 37 33 30 26 26 28 28 22 19 26 20 22 24 19 20 21 20 22 22 18 19 21 19 18 20
42 49 49 48 43 37 36 37 34 34 29 28 33 40 36 59 58 50 51 50 51 36 25 36 34 38 30 31 36 37 29 26 24 24 30 27 26 22 19 21 26 22 22 20 20 22 19 17 15 14 14 16 17 18
43 43 46 51 41 42 38 38 32 33 30 31 36 38 45 59 52 44 51 50 41 45 31 31 41 41 40 43 39 30 27 21 24 25 30 32 29 21 15 23 22 22 21 22 18 17 16 16 16 18 17 17 18 18
44 41 40 46 47 39 41 36 34 36 24 37 38 37 53 59 47 49 57 61 53 49 39 19 26 34 38 34 33 31 26 26 27 29 28 27 25 23 25 24 21 21 21 18 15 14 14 17 18 19 17 17 15 15
44 41 39 40 45 44 40 35 36 25 32 43 35 43 56 48 48 46 49 47 52 47 39 16 11 30 35 36 36 37 31 28 28 28 28 27 23 22 26 26 24 23 23 22 19 17 17 18 19 18 17 16 15 15
47 42 40 41 45 45 41 37 31 29 36 39 41 46 35 53 48 46 44 34 45 47 30 28 25 21 34 33 34 33 30 29 26 32 33 30 32 25 27 27 29 27 22 21 20 17 16 17 17 17 17 17 14 16
49 46 43 49 48 45 40 34 28 32 38 42 53 44 40 54 48 48 33 31 33 40 37 31 32 27 32 34 30 29 21 24 13 25 23 32 38 37 36 31 25 24 25 20 15 16 18 17 17 18 18 14 15 18
52 48 49 53 49 44 37 34 32 46 46 38 48 46 54 57 51 40 25 28 26 22 34 35 35 30 27 25 31 23 13 12 9 13 17 12 32 31 27 28 27 25 23 21 21 21 20 19 19 15 13 15 17 16
54 51 54 56 50 45 39 38 36 43 38 30 48 41 54 51 25 12 23 26 20 22 28 42 33 24 29 25 19 18 12 11 7 10 11 9 22 18 22 27 27 25 24 24 24 23 19 15 14 14 14 15 15 15
56 55 57 56 51 47 42 40 40 39 22 38 44 47 41 30 14 17 20 27 22 31 31 43 37 30 28 26 15 14 12 11 9 10 9 11 9 15 18 20 23 26 25 24 22 17 14 14 12 10 14 13 14 16
58 57 59 56 54 49 44 42 47 34 34 33 24 25 23 13 15 30 45 46 36 36 36 39 38 36 32 24 12 9 12 10 10 10 11 12 15 17 18 19 21 22 21 19 15 13 10 8 11 13 11 13 15 17
60 60 60 56 52 49 44 43 45 39 20 26 14 14 19 30 34 32 39 37 35 24 28 35 31 31 33 13 12 10 14 10 11 10 11 17 19 19 17 17 18 17 15 14 11 9 11 11 8 9 11 14 16 19
60 57 60 56 52 47 45 48 45 23 34 29 12 21 30 29 33 32 33 38 36 30 30 30 30 19 16 10 13 12 10 10 10 7 9 11 13 15 16 15 14 13 12 12 12 11 8 7 9 10 12 15 19 23
64 66 62 56 50 48 49 51 32 19 28 24 24 32 35 41 38 34 33 42 40 31 31 35 19 15 12 13 14 15 12 11 9 11 8 7 8 11 13 14 14 14 14 12 10 9 8 8 9 11 14 18 22 25
64 62 60 56 56 47 42 33 33 22 29 34 28 37 34 33 28 32 31 36 37 39 37 32 21 24 12 17 22 22 16 16 13 13 8 7 11 12 12 13 16 15 13 11 9 8 7 8 10 13 17 22 25 27
63 61 57 57 49 42 36 46 31 22 30 35 33 35 35 33 29 27 33 42 46 43 41 35 15 26 27 16 10 11 18 18 16 14 11 13 12 12 15 16 16 15 13 10 7 6 7 10 14 17 21 25 28 31
58 54 52 47 52 42 30 29 29 24 38 40 38 40 42 41 38 39 42 47 43 42 35 26 16 15 23 14 10 10 13 17 15 15 14 15 16 16 17 17 16 14 10 7 5 6 9 13 16 20 23 27 30 33
49 48 51 49 49 29 31 39 30 41 42 45 43 44 45 43 45 44 48 44 38 34 24 22 16 12 16 15 11 11 16 18 15 9 11 16 18 19 19 18 15 10 7 4 5 8 12 16 19 24 28 30 32 33
52 53 55 59 49 31 29 36 38 45 34 47 43 48 50 47 46 46 44 38 33 29 23 17 16 12 13 14 14 18 20 18 19 18 18 16 17 18 17 13 10 7 3 4 8 12 16 20 24 27 29 31 31 31
61 59 59 52 34 20 33 38 44 41 38 46 48 48 46 47 42 39 29 32 28 26 23 20 18 17 15 16 20 23 20 20 21 20 19 20 18 16 14 10 6 3 3 7 11 15 19 24 27 28 28 28 27 25
64 52 35 20 16 19 40 39 45 39 37 46 36 40 43 42 40 31 32 34 33 30 24 20 18 20 24 25 26 24 24 22 19 20 18 16 16 14 11 6 2 4 6 10 15 20 24 26 25 25 25 23 23 23
43 22 23 11 21 32 33 39 38 35 36 38 38 37 42 41 32 27 39 39 35 30 26 24 26 25 23 25 25 24 22 20 19 19 20 17 12 8 5 3 3 7 11 15 19 22 23 22 22 21 21 21 22 24
12 15 16 17 29 34 33 39 31 41 45 42 29 39 43 29 19 17 35 35 31 27 25 28 26 26 25 22 22 24 26 25 20 17 15 14 10 7 4 4 7 10 15 19 21 20 20 19 20 20 21 22 23 25
12 15 15 23 30 39 39 32 38 45 39 24 38 43 32 16 11 22 35 32 28 30 30 28 25 23 21 24 25 25 25 24 20 14 11 9 7 5 5 7 9 14 17 18 18 18 18 18 19 21 23 25 27 28
20 16 21 24 26 35 41 30 38 39 29 25 42 30 23 17 18 34 38 36 36 35 32 30 28 24 22 22 21 21 22 20 17 14 10 8 6 5 5 8 12 14 16 16 17 17 18 20 21 23 24 27 29 31
31 27 25 30 34 31 34 36 39 31 31 33 44 40 28 18 19 35 41 40 38 35 34 32 31 29 27 27 26 23 18 16 13 11 9 7 5 4 7 9 12 14 15 16 17 18 20 22 23 25 26 27 28 28
32 33 31 34 36 34 32 29 29 23 23 30 34 28 23 21 36 40 38 37 37 33 30 31 32 32 29 26 24 22 20 16 13 11 7 5 3 4 7 9 12 14 15 16 18 20 22 24 25 26 27 27 26 27
30 32 34 34 30 25 23 21 22 23 26 25 24 17 18 30 42 41 38 36 34 33 34 33 30 28 25 23 20 18 16 15 12 9 6 3 2 5 7 10 12 14 16 18 20 22 24 26 27 28 27 26 26 25
25 28 27 27 29 30 28 26 26 27 25 25 25 18 26 40 44 43 39 37 36 34 31 28 27 29 29 25 23 20 17 13 10 7 4 2 3 5 8 11 13 15 18 20 22 23 25 27 28 28 27 25 24 24
23 25 26 30 34 33 32 33 33 29 25 25 25 25 36 40 42 43 43 40 35 32 31 30 28 26 24 23 20 18 15 12 9 5 3 2 5 7 9 11 14 16 19 21 22 24 25 26 27 27 26 25 24 23
Wind_Direction
208 208 208 206 206 206 205 206 208 210 210 211 216 216 204 196 192 194 198 192 213 215 204 208 212 198 191 193 209 208 209 212 214 214 218 222 231 237 231 233 236 233 217 226 230 226 257 264 269 273 292 290 284 287
207 208 208 207 207 207 207 208 209 211 211 213 218 215 203 197 186 194 184 187 193 210 216 215 229 206 205 187 215 216 219 224 225 223 224 222 218 208 217 218 224 236 241 244 229 244 245 270 282 298 290 284 287 289
208 207 207 207 207 207 208 208 209 211 214 216 219 207 198 195 189 192 186 192 190 199 216 204 205 205 212 208 208 214 219 226 234 235 231 224 222 225 223 225 235 242 247 235 252 264 274 279 287 282 281 287 293 293
208 207 206 203 206 205 207 208 210 209 212 219 210 201 193 187 185 193 179 179 185 195 184 195 202 202 202 200 208 218 229 238 240 243 231 228 226 230 228 230 234 242 249 253 255 267 282 287 284 282 290 295 291 289
205 208 208 208 206 204 206 208 210 210 215 212 202 193 194 182 182 191 178 184 194 192 191 184 194 196 213 219 214 219 224 233 233 215 212 217 219 228 238 233 227 233 247 256 270 283 281 289 296 297 298 294 287 282
203 204 209 208 209 210 208 207 211 211 210 193 190 187 188 180 184 189 183 185 189 198 209 200 199 192 204 211 210 214 222 217 217 214 219 223 227 224 234 235 238 236 252 270 278 283 288 287 287 293 293 285 280 279
200 200 204 206 206 201 204 202 205 208 188 177 183 189 179 177 184 190 186 191 194 200 211 211 197 198 206 198 201 212 217 219 218 221 224 226 228 229 234 240 244 250 259 272 283 275 275 283 285 284 286 282 277 273
201 199 199 200 200 203 196 196 207 186 170 179 172 177 173 181 180 190 190 192 197 197 207 207 172 192 202 205 205 211 218 221 225 225 225 226 225 229 236 238 240 250 264 273 278 282 281 284 283 279 276 271 268 274
200 198 192 186 189 186 185 196 197 163 172 166 167 183 172 172 178 197 190 188 198 198 200 200 202 183 194 202 205 209 217 223 228 232 233 235 235 234 243 246 252 259 262 269 277 283 283 283 280 275 266 270 274 277
199 196 186 184 185 183 182 196 180 165 166 160 173 182 176 176 172 189 184 174 185 193 196 200 199 194 194 195 196 207 210 214 230 234 238 240 244 247 249 251 250 261 270 272 272 274 281 282 276 266 265 268 275 282
196 191 184 184 185 178 182 179 170 164 165 167 172 175 179 168 162 159 157 166 174 188 197 201 205 206 194 207 203 193 194 199 224 230 212 236 240 242 243 245 251 255 260 264 264 269 273 272 266 265 266 267 288 295
191 186 182 184 180 173 169 169 175 174 174 172 174 173 166 162 156 168 163 167 177 182 194 194 183 183 186 181 184 190 186 199 213 203 200 243 250 244 238 240 246 249 250 251 256 266 269 260 248 252 269 292 290 297
186 183 181 180 178 171 171 175 181 168 161 161 167 154 172 165 177 165 158 159 171 178 180 185 181 185 176 181 179 182 193 204 201 193 216 227 211 226 230 235 238 241 245 251 254 254 245 239 251 273 282 283 295 300
182 178 177 176 175 177 175 183 177 163 162 175 155 156 173 180 164 177 192 184 181 183 176 174 181 177 176 175 170 182 192 192 199 220 217 221 230 227 223 229 235 243 247 244 240 235 232 237 254 270 286 294 299 303
177 174 175 176 176 176 180 184 171 164 163 163 158 163 169 180 194 189 192 190 193 191 182 173 187 186 177 169 178 183 180 200 212 216 221 217 215 217 227 235 235 235 230 224 219 215 225 250 263 281 287 294 300 305
173 171 175 174 173 176 176 172 169 178 179 182 170 176 176 180 181 189 189 191 197 183 172 185 171 178 180 189 185 195 197 200 200 186 206 214 223 225 222 224 223 216 210 205 205 226 237 257 274 283 291 300 306 308
172 173 171 172 173 174 169 172 177 175 167 171 165 169 176 191 198 191 188 189 182 174 178 174 176 178 176 198 199 197 199 190 185 190 183 180 198 211 216 215 209 203 194 200 213 223 241 258 277 292 301 307 310 313
172 169 170 173 174 168 162 179 177 165 175 186 169 163 169 170 164 165 170 183 179 184 187 178 189 184 185 194 201 208 204 206 190 175 173 182 180 188 188 189 188 186 191 205 213 223 248 274 293 305 309 308 312 318
168 169 172 171 164 161 165 175 177 135 151 174 164 160 163 163 165 166 166 172 179 180 187 191 194 199 201 205 184 205 216 208 203 190 179 170 170 172 175 176 178 187 193 197 208 241 272 294 308 310 312 318 320 320
167 170 173 160 159 159 155 151 157 129 147 149 158 162 165 161 165 173 176 175 179 187 190 196 205 201 200 205 200 186 190 199 198 191 176 171 167 167 167 173 178 180 183 193 218 264 295 309 312 313 315 317 319 318
162 168 162 161 169 162 139 147 139 141 139 146 160 166 160 165 167 172 173 175 185 184 190 201 192 174 182 186 180 176 172 174 169 175 189 179 173 168 170 167 171 171 179 208 268 299 306 305 311 314 314 316 317 320
161 159 168 172 167 154 138 147 149 145 145 151 160 164 156 162 166 171 176 178 180 182 184 178 167 172 184 188 184 171 168 165 163 162 168 170 168 162 160 161 158 161 194 280 297 305 305 312 314 314 316 319 323 327
160 167 167 166 149 131 143 159 150 147 144 156 159 159 158 163 166 166 169 177 173 174 170 166 169 173 182 177 165 158 160 167 174 168 160 157 156 153 151 149 160 202 283 299 302 304 310 313 313 316 321 327 331 334
165 157 147 146 149 147 152 157 159 153 153 158 158 161 165 168 170 170 176 172 173 171 167 175 180 177 166 163 164 166 167 170 169 158 154 152 148 146 147 158 195 271 290 299 305 311 313 315 319 325 330 335 338 341
157 152 172 154 135 156 155 156 155 157 158 161 155 160 167 167 170 173 174 171 170 172 175 173 166 163 164 162 165 167 161 155 159 157 149 146 144 145 164 198 250 285 302 311 314 314 316 322 328 332 337 342 342 340
144 139 162 156 157 164 161 164 163 162 163 159 158 163 167 165 168 179 184 180 178 180 179 170 163 162 166 174 174 168 158 151 152 151 150 147 152 172 200 247 286 308 316 316 317 320 326 333 335 338 339 339 339 337
134 143 164 162 166 176 166 169 170 165 160 162 171 165 167 175 188 188 183 182 182 172 166 164 167 170 175 170 166 163 158 153 151 154 158 157 167 190 247 288 314 318 318 320 324 332 336 337 339 337 334 334 335 336
144 139 155 163 175 186 175 167 167 166 168 173 171 169 172 189 193 177 172 168 167 164 160 163 167 169 171 168 158 157 158 160 162 165 169 173 196 234 286 321 326 325 326 331 337 339 338 338 334 332 333 335 335 333
151 157 165 169 168 168 166 165 171 178 184 176 179 182 181 176 172 172 168 169 166 166 171 170 161 160 161 157 160 162 162 165 170 173 179 197 226 289 323 330 330 334 339 341 341 339 337 333 332 333 333 331 330 328
150 152 162 159 159 165 174 180 184 179 179 182 187 179 178 165 165 172 174 173 170 170 173 172 172 168 171 173 172 170 172 174 176 180 197 218 274 320 331 335 340 342 341 343 342 338 335 333 330 330 331 332 331 331
156 160 163 165 159 154 158 160 161 161 167 171 169 182 179 172 167 169 171 170 169 175 175 175 173 169 172 172 174 178 179 178 181 189 202 231 297 327 338 347 349 349 350 347 342 338 335 334 336 334 331 330 329 332
165 172 172 164 150 147 150 153 154 157 158 171 166 162 175 172 168 165 166 171 175 177 176 177 179 174 172 178 180 182 183 185 189 192 198 233 311 337 349 354 357 358 355 353 348 341 340 339 335 331 328 328 331 332
168 168 169 156 147 150 155 159 154 150 160 167 167 173 177 176 173 169 170 172 175 178 179 177 179 183 182 180 184 186 186 187 190 195 216 290 335 350 357 1 2 1 2 357 350 347 343 337 333 329 329 330 329 329
Height
2884 2893 2901 2910 2918 2926 2934 2941 2948 2955 2962 2968 2974 2980 2988 2997 3011 3021 3036 3043 3054 3065 3072 3079 3084 3094 3101 3108 3114 3117 3126 3128 3130 3134 3138 3140 3141 3144 3144 3146 3146 3148 3149 3150 3152 3154 3152 3148 3148 3150 3150 3147 3146 3146
2877 2886 2895 2903 2912 2920 2928 2935 2942 2949 2956 2962 2968 2974 2982 2991 3006 3019 3029 3041 3052 3061 3069 3074 3080 3087 3095 3103 3109 3115 3121 3122 3124 3129 3131 3134 3137 3137 3138 3140 3141 3144 3145 3146 3148 3145 3144 3145 3145 3144 3144 3143 3142 3143
2870 2879 2889 2897 2906 2915 2923 2930 2937 2944 2950 2957 2962 2967 2976 2986 3002 3013 3024 3036 3048 3057 3063 3070 3075 3084 3089 3096 3104 3109 3114 3116 3120 3124 3127 3129 3129 3132 3132 3134 3137 3138 3140 3141 3143 3142 3140 3141 3141 3140 3139 3138 3139 3138
2863 2872 2882 2891 2900 2909 2917 2925 2932 2939 2945 2950 2956 2963 2973 2984 2998 3012 3018 3032 3044 3052 3056 3063 3070 3078 3085 3091 3099 3104 3110 3114 3117 3119 3120 3121 3124 3126 3128 3132 3133 3134 3136 3137 3138 3137 3136 3136 3136 3135 3134 3134 3133 3133
2856 2865 2874 2884 2895 2904 2912 2920 2927 2933 2939 2944 2951 2960 2969 2982 2997 3008 3016 3028 3040 3050 3052 3059 3069 3075 3079 3086 3093 3099 3105 3107 3110 3112 3113 3116 3119 3123 3124 3126 3127 3129 3130 3132 3132 3133 3132 3131 3131 3131 3131 3130 3129 3128
2849 2858 2867 2878 2888 2899 2907 2915 2922 2928 2934 2941 2948 2958 2966 2979 2996 3003 3013 3024 3034 3042 3051 3058 3063 3069 3074 3079 3088 3095 3098 3101 3105 3107 3110 3111 3115 3120 3120 3121 3124 3125 3125 3126 3128 3128 3128 3127 3126 3126 3126 3125 3125 3124
2842 2852 2861 2871 2883 2893 2902 2910 2917 2923 2928 2936 2945 2954 2967 2981 2988 2997 3004 3012 3027 3038 3049 3054 3055 3062 3070 3076 3082 3087 3093 3096 3099 3102 3106 3109 3111 3113 3114 3115 3118 3119 3120 3121 3123 3124 3122 3122 3121 3121 3120 3120 3120 3121
2837 2846 2856 2866 2876 2888 2898 2906 2913 2918 2925 2935 2945 2956 2970 2981 2989 2996 3004 3014 3025 3038 3045 3049 3050 3058 3064 3070 3077 3083 3088 3092 3096 3099 3101 3103 3106 3106 3106 3109 3111 3113 3116 3116 3117 3118 3117 3116 3116 3115 3115 3115 3115 3114
2833 2842 2852 2862 2872 2884 2895 2904 2908 2916 2926 2934 2947 2958 2969 2976 2985 2992 3005 3016 3025 3035 3039 3041 3046 3053 3060 3067 3074 3080 3084 3089 3093 3094 3095 3099 3097 3097 3098 3103 3105 3108 3110 3110 3111 3111 3111 3111 3110 3109 3109 3109 3110 3109
2828 2839 2850 2860 2871 2882 2893 2899 2905 2914 2924 2935 2947 2952 2959 2967 2984 2991 3006 3011 3016 3024 3030 3035 3043 3051 3058 3065 3069 3078 3082 3086 3086 3087 3090 3089 3086 3089 3094 3097 3099 3101 3103 3104 3105 3106 3106 3105 3105 3104 3105 3106 3106 3105
2823 2836 2847 2858 2869 2881 2891 2896 2904 2913 2923 2929 2937 2949 2956 2970 2982 2986 2992 3001 3011 3019 3022 3031 3041 3049 3055 3061 3067 3074 3076 3080 3080 3081 3082 3078 3075 3080 3087 3090 3091 3094 3097 3098 3099 3099 3099 3100 3100 3101 3102 3102 3102 3102
2819 2833 2844 2855 2869 2881 2889 2896 2902 2908 2918 2928 2936 2947 2956 2967 2974 2982 2988 2999 3005 3012 3017 3029 3037 3045 3051 3058 3064 3070 3073 3074 3074 3074 3075 3069 3069 3075 3079 3082 3084 3088 3090 3090 3092 3093 3094 3096 3097 3097 3098 3099 3098 3098
2816 2830 2842 2855 2868 2879 2886 2893 2901 2913 2922 2930 2939 2945 2951 2960 2965 2970 2975 2986 2994 3000 3010 3019 3030 3037 3048 3056 3060 3065 3066 3068 3068 3067 3065 3063 3066 3068 3072 3075 3078 3080 3082 3085 3087 3089 3091 3092 3093 3095 3095 3094 3093 3094
2815 2829 2843 2856 2867 2877 2886 2893 2902 2913 2920 2923 2927 2938 2948 2949 2951 2958 2969 2979 2987 2995 3002 3014 3022 3033 3041 3049 3054 3058 3061 3062 3060 3056 3054 3059 3060 3063 3066 3070 3072 3075 3078 3081 3084 3086 3088 3090 3090 3090 3090 3091 3090 3089
2816 2830 2844 2857 2868 2878 2887 2894 2907 2915 2919 2925 2929 2934 2940 2946 2954 2960 2968 2978 2989 2998 3005 3011 3020 3031 3038 3044 3047 3050 3050 3050 3047 3046 3050 3052 3054 3058 3061 3065 3068 3072 3075 3078 3081 3084 3085 3086 3087 3088 3088 3087 3085 3083
2818 2833 2845 2858 2869 2879 2889 2899 2907 2913 2918 2922 2927 2933 2940 2947 2952 2958 2969 2980 2988 2998 3005 3012 3021 3030 3033 3036 3038 3038 3039 3037 3039 3043 3046 3048 3052 3055 3059 3062 3066 3070 3073 3076 3078 3080 3082 3083 3084 3084 3084 3083 3081 3078
2819 2829 2843 2858 2870 2881 2891 2900 2906 2912 2919 2926 2931 2935 2942 2951 2953 2960 2971 2979 2990 2995 3001 3011 3018 3022 3025 3029 3029 3029 3028 3033 3037 3041 3044 3047 3050 3053 3057 3061 3064 3067 3070 3073 3076 3078 3079 3080 3081 3080 3079 3078 3076 3072
2822 2835 2848 2858 2869 2877 2890 2897 2907 2910 2918 2926 2931 2937 2944 2951 2958 2965 2972 2982 2990 2997 3000 3004 3010 3014 3015 3016 3015 3021 3026 3031 3036 3040 3043 3046 3048 3051 3056 3059 3062 3065 3068 3071 3074 3075 3076 3077 3077 3077 3075 3071 3068 3064
2826 2840 2849 2862 2870 2881 2891 2900 2904 2910 2917 2926 2933 2938 2946 2953 2961 2966 2973 2981 2989 2993 2997 3001 3005 3005 3008 3011 3016 3019 3024 3030 3034 3038 3042 3045 3048 3051 3053 3057 3061 3064 3067 3070 3072 3073 3073 3073 3074 3072 3068 3064 3061 3057
2835 2847 2857 2868 2877 2886 2891 2898 2904 2909 2916 2925 2931 2937 2943 2949 2957 2964 2971 2979 2985 2991 2995 2997 2999 3002 3007 3012 3016 3019 3023 3029 3033 3036 3039 3042 3046 3050 3053 3057 3060 3063 3066 3068 3070 3071 3070 3071 3068 3065 3063 3059 3055 3050
2841 2851 2861 2869 2877 2883 2888 2898 2904 2912 2917 2922 2930 2937 2943 2949 2955 2965 2972 2979 2986 2987 2991 2995 2999 3003 3007 3011 3015 3019 3023 3028 3032 3036 3039 3041 3045 3048 3052 3055 3060 3063 3064 3066 3067 3068 3067 3065 3063 3061 3057 3053 3049 3045
2843 2855 2861 2870 2880 2885 2890 2899 2906 2911 2919 2924 2933 2941 2947 2953 2960 2968 2975 2980 2982 2986 2992 2996 3000 3004 3008 3011 3015 3019 3024 3027 3031 3034 3038 3041 3044 3047 3052 3056 3058 3061 3063 3064 3064 3063 3061 3059 3057 3054 3050 3046 3042 3036
2850 2860 2872 2879 2886 2893 2900 2905 2909 2914 2921 2928 2935 2943 2947 2954 2961 2968 2973 2978 2981 2987 2992 2996 3000 3004 3008 3011 3015 3019 3023 3028 3031 3035 3038 3042 3045 3049 3053 3055 3058 3060 3061 3060 3060 3059 3058 3055 3051 3047 3043 3039 3034 3030
2860 2868 2875 2883 2888 2893 2899 2904 2908 2913 2918 2925 2933 2939 2947 2953 2960 2964 2969 2974 2982 2987 2990 2995 3000 3003 3006 3010 3014 3019 3023 3028 3032 3035 3039 3043 3047 3049 3052 3055 3056 3057 3058 3058 3057 3054 3051 3048 3044 3040 3036 3032 3028 3024
2870 2875 2878 2879 2886 2894 2900 2905 2909 2914 2920 2926 2932 2940 2948 2955 2961 2966 2969 2974 2979 2983 2989 2994 2999 3003 3007 3010 3015 3019 3024 3029 3032 3036 3039 3044 3047 3049 3051 3053 3055 3055 3054 3053 3052 3049 3045 3041 3037 3033 3030 3027 3024 3020
2869 2875 2881 2883 2888 2895 2899 2904 2909 2913 2920 2927 2935 2942 2949 2955 2961 2963 2967 2972 2977 2984 2989 2994 2999 3002 3007 3012 3016 3020 3023 3028 3034 3038 3041 3043 3046 3049 3051 3052 3052 3051 3049 3048 3045 3042 3038 3034 3031 3028 3025 3022 3019 3015
2870 2876 2880 2883 2887 2893 2899 2906 2912 2916 2922 2928 2933 2941 2948 2953 2955 2959 2966 2973 2979 2983 2989 2995 3001 3005 3009 3012 3017 3021 3025 3030 3035 3039 3041 3043 3046 3048 3049 3049 3047 3047 3045 3042 3039 3035 3032 3029 3026 3023 3020 3017 3013 3009
2873 2879 2883 2888 2892 2898 2902 2909 2915 2921 2925 2929 2937 2940 2946 2949 2950 2954 2962 2970 2976 2983 2989 2995 3001 3007 3011 3016 3020 3024 3027 3031 3034 3037 3040 3042 3045 3046 3046 3044 3043 3042 3039 3036 3033 3030 3027 3024 3022 3019 3016 3011 3007 3004
2877 2882 2887 2889 2894 2900 2906 2911 2916 2919 2924 2929 2933 2937 2942 2946 2951 2956 2961 2969 2976 2984 2989 2995 3000 3006 3011 3016 3020 3024 3028 3032 3035 3037 3039 3041 3042 3043 3041 3040 3039 3037 3034 3031 3028 3026 3023 3021 3018 3014 3010 3007 3003 3000
2879 2884 2889 2894 2899 2904 2909 2913 2917 2922 2926 2930 2935 2940 2945 2949 2954 2961 2966 2973 2979 2986 2993 2998 3001 3005 3010 3015 3019 3023 3027 3030 3032 3035 3037 3038 3039 3038 3037 3036 3034 3032 3030 3027 3024 3021 3019 3016 3013 3009 3005 3002 2999 2996
2884 2889 2893 2896 2900 2905 2910 2914 2919 2924 2929 2933 2938 2944 2945 2947 2953 2962 2969 2976 2982 2988 2991 2995 3001 3007 3012 3016 3020 3023 3026 3028 3031 3033 3035 3035 3035 3034 3033 3032 3030 3028 3025 3023 3021 3018 3015 3011 3006 3003 3001 2997 2994 2990
2885 2889 2893 2896 2901 2905 2911 2916 2921 2926 2931 2936 2939 2944 2947 2950 2955 2961 2968 2976 2981 2986 2992 2998 3002 3006 3010 3014 3018 3021 3024 3027 3029 3030 3031 3031 3031 3030 3029 3028 3026 3024 3022 3019 3017 3014 3010 3006 3003 3000 2997 2993 2989 2985
2888 2892 2895 2898 2902 2907 2912 2916 2921 2927 2933 2937 2940 2943 2947 2952 2956 2962 2967 2974 2982 2988 2992 2997 3002 3007 3010 3014 3017 3020 3022 3024 3025 3026 3027 3028 3027 3026 3026 3024 3022 3020 3018 3016 3013 3009 3005 3002 2999 2996 2992 2987 2984 2981